Regional Weather Roundup
Issued by NWS

Home | Current Version | Previous Version | Text Only | Print | Product List | Glossary On
Versions: 1 2 3 4 5 6 7 8 9 10 11 12 13 14 15 16 17 18 19 20 21 22 23 24 25 26 27 28 29 30 31 32 33 34 35 36 37 38 39 40 41 42 43 44 45 46 47 48 49 50
000
ASUS43 KFSD 020810
RWRSD

WEATHER ROUNDUP FOR SOUTH DAKOTA
NATIONAL WEATHER SERVICE SIOUX FALLS SD
300 AM CDT THU APR 02 2015

NOTE: "FAIR" INDICATES FEW OR NO CLOUDS BELOW 12,000 FEET WITH NO
SIGNIFICANT WEATHER AND/OR OBSTRUCTIONS TO VISIBILITY.


SDZ001>005-009-010-012>017-020900-
NORTHWEST AND NORTH CENTRAL SOUTH DAKOTA

CITY           SKY/WX    TMP DP  RH WIND       PRES   REMARKS
BUFFALO          N/A     31  17  56 W16       29.74S WCI  20
FAITH            N/A     37  12  35 W15       29.79S
MOBRIDGE       PTCLDY    29  21  72 CALM      29.75R
$$

SDZ012>016-024>037-041>051-057-063-072>074-020900-
SOUTHWEST AND SOUTH CENTRAL SOUTH DAKOTA

CITY           SKY/WX    TMP DP  RH WIND       PRES   REMARKS
RAPID CTY ARPT CLEAR     36  12  37 W8        29.87R
PIERRE         CLOUDY    39  19  44 SW6       29.82R
CUSTER         PTCLDY    28   5  37 W3        29.87R
ELLSWORTH AFB  CLEAR     31  10  41 W10       29.86R WCI  23
PHILIP         CLEAR     30  11  45 W10       29.86R WCI  21
PINE RIDGE     CLEAR     30  18  60 CALM      29.90R
SPEARFISH      FAIR      39   9  28 W12       29.87S
$$

SDZ004>011-016>023-039-040-020900-
NORTHEAST SOUTH DAKOTA

CITY           SKY/WX    TMP DP  RH WIND       PRES   REMARKS
ABERDEEN       MOCLDY    33  24  69 W7        29.77S WCI  27
WATERTOWN      CLOUDY    42  31  64 W8        29.77R
BROOKINGS      CLOUDY    43  30  61 SW6       29.79R
SISSETON         N/A     42  28  57 W8        29.72S
$$

SDZ017-020-022-023-036>040-048>070-020900-
SOUTHEAST SOUTH DAKOTA

CITY           SKY/WX    TMP DP  RH WIND       PRES   REMARKS
SIOUX FALLS    CLOUDY    47  30  51 NW3       29.80R
HURON          CLOUDY    37  26  64 W6        29.82R
CHAMBERLAIN    CLOUDY    42  24  49 NW6       29.84R
MITCHELL       MOCLDY    45  27  49 CALM      29.83R
YANKTON        CLOUDY    50  28  43 NW8       29.82S
$$

ABBREVIATIONS USED IN REMARKS
   TC - TEMPERATURE IN CELSIUS
  WCI - WIND CHILL INDEX
   HX - HEAT INDEX
  VSB - VISIBILITY




USA.gov is the U.S. government's official web portal to all federal, state and local government web resources and services.